Weather Roundup
Issued by NWS Chicago, IL

Home | Current Version | Previous Version | Text Only | Print | Product List | Glossary Off
Versions: 1 2 3 4 5 6 7 8 9 10 11 12 13 14 15 16 17 18 19 20 21 22 23 24 25 26 27 28 29 30 31 32 33 34 35 36 37 38 39 40 41 42 43 44 45 46 47 48 49 50

880
NZUS59 KLOT 041408
HRRLOT

CHICAGO AREA WEATHER ROUNDUP
NATIONAL WEATHER SERVICE CHICAGO/ROMEOVILLE IL
900 AM CDT WED MAY 04 2016

NOTE: "FAIR" INDICATES FEW OR NO CLOUDS BELOW 12,000 FEET WITH NO
SIGNIFICANT WEATHER AND/OR OBSTRUCTIONS TO VISIBILITY.

* THESE STATIONS ARE NOT UNDER NWS QUALITY CONTROL. THEY ALSO MAY NOT
  REPORT WEATHER SUCH AS PRECIPITATION OR FOG.

ILZ005-006-012>014-019>023-041500-
NORTHEAST ILLINOIS

CITY           SKY/WX    TMP DP  RH WIND       PRES   REMARKS
OHARE          PTSUNNY   49  39  68 N16       29.72S
MIDWAY         CLOUDY    48  39  71 N18       29.73R
AURORA         MOSUNNY   50  42  74 N21       29.75R
LANSING*       CLOUDY    49  40  72 N14G23    29.73R
JOLIET*        PTSUNNY   54  44  69 N10G20    29.74R
WAUKEGAN       CLOUDY    47  38  71 N10G21    29.73R
DUPAGE AIRPORT MOSUNNY   51  39  63 N15G25    29.73R
WHEELING       MOSUNNY   48  39  71 N13       29.74R
KANKAKEE*      PTSUNNY   51  42  72 N9        29.74R
MORRIS*        PTSUNNY   52  44  74 N8        29.74R
LEWIS AIRPORT* CLOUDY    51  43  73 N12       29.73S
$$

WIZ051-052-058>065-066-070>072-041500-
SOUTHEAST WISCONSIN

CITY           SKY/WX    TMP DP  RH WIND       PRES   REMARKS
MILWAUKEE      PTSUNNY   46  36  68 NW21G26   29.75R
KENOSHA*       PTSUNNY   46  37  71 N17G26    29.75R
RACINE*        CLOUDY    47  36  65 NW14      29.76R
BURLINGTON     CLOUDY    44  37  76 N12       29.76R
WEST BEND      CLOUDY    43  34  70 N16G24    29.77R
$$

INZ001>003-010>013-019-020-041500-
NORTHWEST INDIANA

CITY           SKY/WX    TMP DP  RH WIND       PRES   REMARKS
GARY*          MOSUNNY   48  45  87 NW23G41   29.74R
MICHIGAN CITY* NOT AVBL
RENSSELAER*    NOT AVBL
VALPARAISO     CLOUDY    42  38  85 N17G31    29.71R
$$

LMZ740>746-041500-
SOUTHERN LAKE MICHIGAN

STATION/POSITION TIME  SKY/WX   TEMP WIND        PRES    VSBY
                                AIR  DIR/SP/G
                 (UTC)          (F)  (DEG/KT/KT) (MB)    (MI)
HARRISON CRIB    1300            45  350/ 24/ 27   N/A
BURNHAM HARBOR   1400            46  350/ 13/ 21   N/A
CALUMET HARBOR   1300            45  340/ 19/ 25 1006.1R
BURNS HARBOR     1305            43  350/ 28     1006.1R
MICHIGAN CITY    1300            42  340/ 30/ 33   N/A
$$

ABBREVIATIONS USED IN REMARKS
   TC - TEMPERATURE IN CELSIUS
  WCI - WIND CHILL INDEX
   HX - HEAT INDEX
  VSB - VISIBILITY
$$




USA.gov is the U.S. government's official web portal to all federal, state and local government web resources and services.